234  
SXUS52 KJAX 250414  
OSOJAX  
OTHER SURFACE OBSERVATIONS  
NATIONAL WEATHER SERVICE JACKSONVILLE FL  
1200 AM EDT MON MAY 25 2020  
 
FLZ020>025-030>033-035>038-040-250500-   
..FLORIDA
 
 
 
CITY SKY/WX TMP DP RH WIND PRES REMARKS  
CECIL FIELD FAIR 77 72 83 CALM 30.01S  
HERLONG FIELD NOT AVBL  
FERNANDINA BCH NOT AVBL  
LAKE CITY FAIR 73 68 83 E3 30.02R  
JUNIPER SPGS NOT AVBL  
BUNNELL NOT AVBL  
KEYSTONE HGTS PTCLDY 75 73 94 E7 30.00S  

 
 
GAZ132>136-149>154-162>166-250500-   
..GEORGIA
 
 
 
CITY SKY/WX TMP DP RH WIND PRES REMARKS  
JESUP FAIR 73 70 88 CALM 30.05R  
HOMERVILLE FAIR 72 68 88 E3 30.03S  
SWAINSBORO FAIR 70 68 94 CALM 30.08R  
CORDELE NOT AVBL  
EASTMAN FAIR 71 68 89 NE9 30.08R  

 
 
PLEASE NOTE: THESE OBSERVATIONS ARE NOT QUALITY CONTROLLED AND MAY  
NOT BE AVAILABLE AT ALL TIMES.  

 
 
 
CLICK HERE TO GO TO PREVIOUS BULLETINS.

The Nexlab FL Page
The Nexlab GA Page Main Text Page